Find Starlink 32227

NORAD ID: 60361 Int'l Des: 2024-138 Owner: SPXS Country: US Constellation: starlink operational
LEOCIRCULAR

現在のビュー

3D地球を読み込み中...

About Starlink 32227

Starlink 32227 (NORAD 60361) is a starlink constellation satellite (v2 mini) launched Aug 4, 2024 by SPXS of US. It operates in LEO, CIRCULAR orbit with a mass of 730.00 kg.

Starlink 32227について

説明を読み込み中...

次回通過

Passes for default location (London). Set your location on the main map for personalized predictions.

高度履歴

Loading altitude history...

軌道要素

1 60361U 24138G 26175.28152025 -.00002266 00000-0 -64399-4 0 9993
2 60361 53.1592 174.7461 0001119 76.0431 284.0694 15.30205761106950
Epoch: Jun 24, 2026 • Age: 25 hours

現在のステータス

高度 476.9 km
速度 7.63 km/s
衛星直下点 -5.15°S, 135.44°E
打ち上げ日 Aug 4, 2024
運用期間 1.8 years
タイプ internet

技術仕様

分類 Payload
質量 730.00 kg
乾燥質量 700.00 kg
総質量 730.00 kg
長さ 0.30 m
直径 4.10 m
スパン 29.00 m
形状 Box + pan
製造者 SPXS
バスタイプ Starlink V2M
フェーズステータス In Orbit
所有者/国 SPXS/US

Most Searched